Location: Miami, Florida
(25.6830°N, 80.1700°W)
Time: 14:30:40
(UTC-04:00)

ISS - Pass Details

Date: 19 November 2017
Orbit: 402 x 407 km, 51.6° (Epoch: 24 November)

Event Time Altitude Azimuth Distance (km) Brightness Sun altitude
Exits shadow 05:52:21 15° 38° (NE) 1,177 -1.2 -24.4°
Maximum altitude 05:52:28 15° 41° (NE) 1,175 -1.2 -24.4°
Drops below altitude 10° 05:54:28 10° 79° (E) 1,445 -0.1 -24.0°
Sets 05:57:10 0° 104° (ESE) 2,301 1.5 -23.4°
